KE2LU Weather Reports


Display with metric or nautical units.
time (UTC)temp
F
wind
direction
speed
MPH
gust
MPH
rain 1hr
in
rain 24hr
in
rain mn
in
humidity
%
barometer
mb
20260504050003 52 210 1.0 3.0 0.00 0.00 0.00 61 1009.1
20260504045503 52 211 1.0 3.0 0.00 0.00 0.00 61 1009.2
20260504045004 53 192 1.0 3.0 0.00 0.00 0.00 61 1009.1
20260504044503 53 236 2.0 3.0 0.00 0.00 0.00 60 1009.2
20260504044003 53 132 0.0 2.0 0.00 0.00 0.00 60 1009.1
20260504043503 53 222 1.0 3.0 0.00 0.00 0.00 60 1009.1
20260504043003 53 206 1.0 5.0 0.00 0.00 0.00 61 1009.1
20260504042503 53 164 1.0 5.0 0.00 0.00 0.00 61 1009.1
20260504042003 53 92 0.0 2.0 0.00 0.00 0.00 60 1009.1
20260504041503 53 241 1.0 3.0 0.00 0.00 0.00 60 1009.1
20260504040003 53 226 2.0 5.0 0.00 0.00 0.00 60 1009.2
20260504035003 53 245 2.0 9.0 0.00 0.00 0.00 61 1009.1
20260504034503 53 133 1.0 3.0 0.00 0.00 0.00 62 1009.1
20260504034003 52 233 1.0 3.0 0.00 0.00 0.00 63 1009.1
20260504033003 52 234 0.0 3.0 0.00 0.00 0.00 63 1009.2
20260504032503 52 207 0.0 0.0 0.00 0.00 0.00 64 1009.1
20260504032004 52 203 1.0 3.0 0.00 0.00 0.00 64 1009.2
20260504031503 52 118 0.0 1.0 0.00 0.00 0.00 64 1009.2
20260504031003 52 233 0.0 1.0 0.00 0.00 0.00 63 1009.3
20260504030503 53 243 0.0 1.0 0.00 0.00 0.00 63 1009.4
20260504030003 53 221 0.0 2.0 0.00 0.00 0.00 63 1009.4
20260504025503 53 158 0.0 3.0 0.00 0.00 0.00 62 1009.4
20260504025003 53 130 0.0 3.0 0.00 0.00 0.00 62 1009.4
20260504024504 53 232 1.0 5.0 0.00 0.00 0.00 63 1009.4
20260504024003 53 210 2.0 3.0 0.00 0.00 0.00 63 1009.5
20260504023504 52 189 1.0 5.0 0.00 0.00 0.00 64 1009.5
20260504023003 52 220 1.0 3.0 0.00 0.00 0.00 65 1009.6
20260504022503 52 253 1.0 3.0 0.00 0.00 0.00 66 1009.6
20260504021503 51 280 0.0 2.0 0.00 0.00 0.00 71 1009.7
20260504021003 51 255 1.0 6.0 0.00 0.00 0.00 71 1009.7
20260504020003 51 211 0.0 2.0 0.00 0.00 0.00 73 1009.7
20260504015503 51 219 0.0 1.0 0.00 0.00 0.00 74 1009.7
20260504015003 51 225 0.0 1.0 0.00 0.00 0.00 74 1009.7
20260504014503 51 123 0.0 5.0 0.00 0.00 0.00 74 1009.7
20260504014003 51 256 1.0 3.0 0.00 0.00 0.00 75 1009.7
20260504013503 50 228 2.0 6.0 0.00 0.00 0.00 77 1009.8
20260504013004 50 244 1.0 7.0 0.00 0.00 0.00 80 1010.0
20260504012503 49 263 1.0 8.0 0.00 0.00 0.00 83 1010.1
20260504011504 49 250 0.0 1.0 0.00 0.00 0.00 83 1010.3
20260504011003 49 252 0.0 2.0 0.00 0.00 0.00 82 1010.3
20260504010504 49 218 1.0 3.0 0.00 0.00 0.00 82 1010.3
20260504005504 50 260 1.0 8.0 0.00 0.00 0.00 82 1010.2
20260504005004 50 229 2.0 5.0 0.00 0.00 0.00 82 1010.2
20260504004503 50 228 0.0 2.0 0.00 0.00 0.00 81 1010.4
20260504004004 50 301 1.0 6.0 0.00 0.00 0.00 80 1010.5
20260504003503 51 282 3.0 7.0 0.00 0.00 0.00 79 1010.6
20260504003003 51 274 3.0 7.0 0.00 0.00 0.00 77 1010.7
20260504002504 51 260 3.0 8.0 0.00 0.00 0.00 75 1010.7
20260504002003 51 287 2.0 7.0 0.00 0.00 0.00 74 1010.5
20260504001503 51 284 2.0 3.0 0.00 0.00 0.00 73 1010.4
20260503235003 53 269 6.0 16.0 0.00 0.00 0.00 69 1010.5
20260503234503 53 289 6.0 15.0 0.00 0.00 0.00 66 1010.4
20260503234004 54 251 4.0 13.0 0.00 0.00 0.00 63 1010.3
20260503233504 54 281 5.0 9.0 0.00 0.00 0.00 57 1010.1
20260503232504 55 273 3.0 9.0 0.00 0.00 0.00 55 1009.9
20260503232004 55 241 5.0 15.0 0.00 0.00 0.00 54 1009.8
20260503231503 56 292 2.0 13.0 0.00 0.00 0.00 53 1009.8
20260503231003 56 201 4.0 10.0 0.00 0.00 0.00 51 1009.7
20260503230504 56 258 5.0 14.0 0.00 0.00 0.00 50 1009.7
20260503225503 56 251 6.0 17.0 0.00 0.00 0.00 49 1009.5
20260503225003 56 261 0.0 8.0 0.00 0.00 0.00 49 1009.5
20260503224503 56 234 5.0 13.0 0.00 0.00 0.00 49 1009.3
20260503224003 55 232 4.0 10.0 0.00 0.00 0.00 50 1009.4
20260503223504 55 202 2.0 10.0 0.00 0.00 0.00 52 1009.4
20260503222004 54 43 0.0 1.0 0.00 0.00 0.00 54 1009.5
20260503221504 54 354 2.0 5.0 0.00 0.00 0.00 54 1009.5
20260503221003 55 309 3.0 7.0 0.00 0.00 0.00 53 1009.9
20260503220504 55 330 3.0 7.0 0.00 0.00 0.00 52 1009.9
20260503220003 55 306 3.0 9.0 0.00 0.00 0.00 53 1009.9
20260503215503 56 311 6.0 13.0 0.00 0.00 0.00 50 1010.1
20260503215004 57 325 4.0 9.0 0.00 0.00 0.00 48 1010.2
20260503214504 57 300 7.0 16.0 0.00 0.00 0.00 46 1010.1
20260503213504 57 294 5.0 12.0 0.00 0.00 0.00 44 1009.8
20260503213003 57 291 3.0 12.0 0.00 0.00 0.00 44 1009.6
20260503212504 58 272 5.0 12.0 0.00 0.00 0.00 44 1009.5
20260503212004 58 279 5.0 9.0 0.00 0.00 0.00 43 1009.5
20260503211504 58 274 5.0 14.0 0.00 0.00 0.00 43 1009.3
20260503211004 58 303 3.0 12.0 0.00 0.00 0.00 43 1009.5
20260503210503 58 288 3.0 10.0 0.00 0.00 0.00 44 1009.5
20260503210004 58 293 6.0 13.0 0.00 0.00 0.00 42 1009.7
20260503205504 58 307 8.0 16.0 0.00 0.00 0.00 42 1009.7
20260503205004 59 281 5.0 13.0 0.00 0.00 0.00 40 1009.8
20260503204503 58 240 3.0 8.0 0.00 0.00 0.00 42 1009.8
20260503204004 58 222 3.0 15.0 0.00 0.00 0.00 41 1009.8
20260503203504 58 267 3.0 8.0 0.00 0.00 0.00 43 1009.9
20260503203003 58 261 6.0 12.0 0.00 0.00 0.00 40 1009.9
20260503202504 58 174 3.0 12.0 0.00 0.00 0.00 42 1010.0
20260503202004 58 267 2.0 8.0 0.00 0.00 0.00 41 1010.1
20260503201503 57 279 5.0 14.0 0.00 0.00 0.00 41 1010.1
20260503201004 57 267 5.0 13.0 0.00 0.00 0.00 40 1010.2
20260503200504 58 255 4.0 8.0 0.00 0.00 0.00 41 1010.2
20260503195504 57 237 8.0 16.0 0.00 0.00 0.00 40 1010.4
20260503195004 57 256 5.0 14.0 0.00 0.00 0.00 42 1010.5
20260503194004 58 244 6.0 18.0 0.00 0.00 0.00 41 1010.7
20260503193004 57 241 5.0 12.0 0.00 0.00 0.00 44 1011.0
20260503192004 56 235 6.0 12.0 0.00 0.00 0.00 42 1011.2
20260503191504 55 268 7.0 17.0 0.00 0.00 0.00 47 1011.4
20260503191004 55 238 4.0 8.0 0.00 0.00 0.00 48 1011.5
20260503190504 55 282 4.0 7.0 0.00 0.00 0.00 51 1011.5
20260503190004 55 281 2.0 7.0 0.00 0.00 0.00 52 1011.7
20260503185004 55 267 2.0 6.0 0.00 0.00 0.00 55 1011.9
20260503184504 54 316 2.0 6.0 0.00 0.00 0.00 57 1011.9
20260503183505 53 336 3.0 6.0 0.00 0.00 0.00 57 1012.1
20260503183004 53 344 3.0 6.0 0.00 0.00 0.00 55 1012.1
20260503182504 53 312 3.0 6.0 0.00 0.00 0.00 56 1012.1
20260503182005 53 333 6.0 10.0 0.00 0.00 0.00 53 1012.0
20260503181004 53 297 3.0 9.0 0.00 0.00 0.00 54 1012.1
20260503180005 53 356 6.0 12.0 0.00 0.00 0.00 54 1012.2
20260503175504 53 340 6.0 13.0 0.00 0.00 0.00 53 1012.3
20260503175004 53 343 5.0 8.0 0.00 0.00 0.00 57 1012.4
20260503174504 52 335 7.0 10.0 0.00 0.00 0.00 55 1012.3
20260503174004 53 313 6.0 12.0 0.00 0.00 0.00 55 1012.4
20260503173504 53 338 9.0 13.0 0.00 0.00 0.00 54 1012.4
20260503173004 53 315 5.0 9.0 0.00 0.00 0.00 53 1012.4
20260503172504 54 352 7.0 12.0 0.00 0.00 0.00 51 1012.4
20260503171504 54 293 5.0 13.0 0.00 0.00 0.00 50 1012.5
20260503171004 55 262 6.0 16.0 0.00 0.00 0.00 49 1012.4
20260503170504 55 231 4.0 9.0 0.00 0.00 0.00 48 1012.5
20260503151004 51 35 2.0 6.0 0.00 0.00 0.00 52 1013.8
20260503131004 46 334 3.0 6.0 0.00 0.01 0.00 54 1014.7
20260503130505 45 282 3.0 8.0 0.00 0.01 0.00 52 1014.8